| time (UTC) | temp C | wind direction | speed KPH | gust KPH | rain 1hr cm | rain 24hr cm | rain mn cm | humidity % | barometer mb |
| 20260508014549 | 12 | 0 | 1.6 | 4.8 | 0.00 | 0.51 | 0.48 | 27 | 1019.1 |
| 20260508013043 | 13 | 250 | 0.0 | 12.9 | 0.00 | 0.51 | 0.48 | 25 | 1018.7 |
| 20260508011546 | 15 | 234 | 11.3 | 17.7 | 0.00 | 0.51 | 0.48 | 23 | 1018.7 |
| 20260508010044 | 15 | 281 | 11.3 | 20.9 | 0.00 | 0.51 | 0.48 | 24 | 1018.6 |
| 20260508004549 | 15 | 254 | 9.7 | 19.3 | 0.00 | 0.51 | 0.48 | 22 | 1018.7 |
| 20260508003049 | 15 | 245 | 11.3 | 22.5 | 0.00 | 0.51 | 0.48 | 24 | 1018.6 |
| 20260508001545 | 15 | 232 | 12.9 | 30.6 | 0.00 | 0.51 | 0.48 | 23 | 1018.7 |
| 20260508000043 | 15 | 305 | 9.7 | 24.1 | 0.00 | 0.51 | 0.48 | 24 | 1018.7 |
| 20260507234553 | 15 | 247 | 11.3 | 25.7 | 0.00 | 0.51 | 0.48 | 23 | 1018.7 |
| 20260507233108 | 15 | 294 | 12.9 | 32.2 | 0.00 | 0.51 | 0.48 | 24 | 1018.7 |
| 20260507231545 | 15 | 311 | 11.3 | 25.7 | 0.00 | 0.51 | 0.48 | 25 | 1018.8 |
| 20260507230047 | 15 | 218 | 11.3 | 25.7 | 0.00 | 0.51 | 0.48 | 24 | 1018.9 |
| 20260507224550 | 15 | 223 | 17.7 | 29.0 | 0.00 | 0.51 | 0.48 | 24 | 1019.0 |
| 20260507223057 | 15 | 263 | 16.1 | 24.1 | 0.00 | 0.51 | 0.48 | 24 | 1019.2 |
| 20260507221547 | 15 | 233 | 11.3 | 22.5 | 0.00 | 0.51 | 0.48 | 26 | 1019.1 |
| 20260507220052 | 14 | 234 | 11.3 | 22.5 | 0.00 | 0.51 | 0.48 | 25 | 1019.3 |
| 20260507214550 | 13 | 282 | 17.7 | 27.4 | 0.00 | 0.51 | 0.48 | 27 | 1019.4 |
| 20260507213044 | 13 | 267 | 17.7 | 32.2 | 0.00 | 0.51 | 0.48 | 28 | 1019.6 |
| 20260507211555 | 13 | 243 | 20.9 | 35.4 | 0.00 | 0.51 | 0.48 | 25 | 1019.9 |
| 20260507210106 | 13 | 248 | 12.9 | 27.4 | 0.00 | 0.51 | 0.48 | 24 | 1020.1 |
| 20260507204548 | 13 | 227 | 8.0 | 19.3 | 0.00 | 0.51 | 0.48 | 24 | 1020.4 |
| 20260507203048 | 12 | 288 | 11.3 | 25.7 | 0.00 | 0.51 | 0.48 | 23 | 1020.6 |
| 20260507201547 | 12 | 257 | 12.9 | 29.0 | 0.00 | 0.51 | 0.48 | 26 | 1020.8 |
| 20260507200056 | 12 | 284 | 14.5 | 32.2 | 0.00 | 0.51 | 0.48 | 24 | 1020.9 |
| 20260507194559 | 11 | 220 | 14.5 | 29.0 | 0.00 | 0.51 | 0.48 | 23 | 1021.3 |
| 20260507193048 | 11 | 257 | 19.3 | 30.6 | 0.00 | 0.51 | 0.48 | 24 | 1021.4 |
| 20260507191548 | 11 | 280 | 17.7 | 33.8 | 0.00 | 0.51 | 0.48 | 26 | 1021.6 |
| 20260507190050 | 11 | 250 | 19.3 | 32.2 | 0.00 | 0.51 | 0.48 | 23 | 1021.6 |
| 20260507184547 | 10 | 239 | 24.1 | 41.8 | 0.00 | 0.51 | 0.48 | 22 | 1021.7 |
| 20260507183111 | 11 | 289 | 12.9 | 30.6 | 0.00 | 0.51 | 0.48 | 23 | 1021.8 |
| 20260507181556 | 10 | 277 | 24.1 | 38.6 | 0.03 | 0.51 | 0.48 | 24 | 1021.9 |
| 20260507180049 | 10 | 241 | 19.3 | 33.8 | 0.10 | 0.51 | 0.48 | 23 | 1022.0 |
| 20260507174550 | 10 | 236 | 16.1 | 27.4 | 0.15 | 0.51 | 0.48 | 26 | 1022.0 |
| 20260507173048 | 10 | 264 | 16.1 | 32.2 | 0.23 | 0.51 | 0.48 | 26 | 1022.2 |
| 20260507171550 | 9 | 202 | 12.9 | 24.1 | 0.23 | 0.46 | 0.43 | 25 | 1022.2 |
| 20260507170053 | 9 | 308 | 4.8 | 24.1 | 0.23 | 0.41 | 0.38 | 24 | 1022.3 |
| 20260507164606 | 8 | 276 | 12.9 | 22.5 | 0.23 | 0.36 | 0.33 | 24 | 1022.2 |
| 20260507163053 | 8 | 234 | 16.1 | 35.4 | 0.18 | 0.28 | 0.25 | 25 | 1022.2 |
| 20260507161555 | 7 | 294 | 16.1 | 30.6 | 0.15 | 0.23 | 0.20 | 29 | 1022.2 |
| 20260507160051 | 7 | 251 | 16.1 | 29.0 | 0.15 | 0.18 | 0.15 | 25 | 1022.4 |
| 20260507154556 | 7 | 263 | 19.3 | 35.4 | 0.10 | 0.13 | 0.10 | 28 | 1022.4 |
| 20260507153048 | 7 | 257 | 19.3 | 33.8 | 0.08 | 0.10 | 0.08 | 27 | 1022.4 |
| 20260507151548 | 6 | 255 | 19.3 | 41.8 | 0.05 | 0.08 | 0.05 | 25 | 1022.5 |
| 20260507150053 | 6 | 234 | 17.7 | 29.0 | 0.00 | 0.03 | 0.00 | 26 | 1022.4 |
| 20260507144545 | 6 | 290 | 16.1 | 35.4 | 0.00 | 0.03 | 0.00 | 29 | 1022.5 |
| 20260507143047 | 6 | 275 | 22.5 | 38.6 | 0.00 | 0.03 | 0.00 | 25 | 1022.7 |
| 20260507141543 | 5 | 337 | 19.3 | 33.8 | 0.00 | 0.03 | 0.00 | 27 | 1022.5 |
| 20260507140049 | 5 | 280 | 17.7 | 32.2 | 0.00 | 0.03 | 0.00 | 26 | 1022.9 |
| 20260507134549 | 5 | 257 | 16.1 | 29.0 | 0.00 | 0.03 | 0.00 | 29 | 1023.0 |
| 20260507133051 | 5 | 228 | 17.7 | 30.6 | 0.00 | 0.03 | 0.00 | 30 | 1023.0 |
| 20260507131545 | 4 | 249 | 17.7 | 38.6 | 0.00 | 0.03 | 0.00 | 31 | 1023.0 |
| 20260507130043 | 3 | 288 | 19.3 | 32.2 | 0.00 | 0.03 | 0.00 | 33 | 1022.7 |
| 20260507124547 | 3 | 248 | 24.1 | 37.0 | 0.00 | 0.03 | 0.00 | 33 | 1022.7 |
| 20260507123043 | 3 | 252 | 20.9 | 40.2 | 0.00 | 0.03 | 0.00 | 33 | 1022.3 |
| 20260507121539 | 3 | 245 | 17.7 | 33.8 | 0.00 | 0.03 | 0.00 | 35 | 1022.1 |
| 20260507120052 | 2 | 283 | 17.7 | 25.7 | 0.00 | 0.03 | 0.00 | 39 | 1021.9 |
| 20260507114603 | 1 | 243 | 12.9 | 22.5 | 0.00 | 0.03 | 0.00 | 42 | 1022.0 |
| 20260507113104 | 1 | 231 | 14.5 | 22.5 | 0.00 | 0.03 | 0.00 | 45 | 1022.0 |
| 20260507111547 | 1 | 257 | 14.5 | 25.7 | 0.00 | 0.03 | 0.00 | 45 | 1022.2 |
| 20260507110043 | 1 | 243 | 16.1 | 24.1 | 0.00 | 0.03 | 0.00 | 45 | 1022.2 |
| 20260507104546 | 2 | 250 | 14.5 | 20.9 | 0.00 | 0.03 | 0.00 | 44 | 1022.3 |
| 20260507103051 | 2 | 260 | 4.8 | 19.3 | 0.00 | 0.03 | 0.00 | 40 | 1022.2 |
| 20260507101548 | 2 | 261 | 9.7 | 24.1 | 0.00 | 0.03 | 0.00 | 41 | 1022.4 |
| 20260507100057 | 2 | 267 | 9.7 | 20.9 | 0.00 | 0.03 | 0.00 | 41 | 1022.3 |
| 20260507094549 | 2 | 256 | 9.7 | 19.3 | 0.00 | 0.03 | 0.00 | 44 | 1022.3 |
| 20260507093050 | 3 | 250 | 8.0 | 25.7 | 0.00 | 0.03 | 0.00 | 39 | 1022.0 |
| 20260507091558 | 3 | 259 | 9.7 | 33.8 | 0.00 | 0.03 | 0.00 | 41 | 1021.8 |
| 20260507090044 | 2 | 248 | 8.0 | 27.4 | 0.00 | 0.03 | 0.00 | 46 | 1021.9 |
| 20260507084555 | 3 | 240 | 22.5 | 32.2 | 0.00 | 0.03 | 0.00 | 45 | 1021.9 |
| 20260507083047 | 2 | 247 | 16.1 | 40.2 | 0.00 | 0.03 | 0.00 | 49 | 1021.9 |
| 20260507081549 | 2 | 244 | 16.1 | 29.0 | 0.00 | 0.03 | 0.00 | 51 | 1021.9 |
| 20260507080050 | 2 | 258 | 12.9 | 37.0 | 0.00 | 0.03 | 0.00 | 53 | 1022.1 |
| 20260507074555 | 2 | 227 | 1.6 | 16.1 | 0.00 | 0.03 | 0.00 | 54 | 1022.4 |
| 20260507073047 | 2 | 246 | 6.4 | 22.5 | 0.00 | 0.03 | 0.00 | 52 | 1022.4 |
| 20260507071545 | 2 | 209 | 11.3 | 24.1 | 0.00 | 0.03 | 0.00 | 53 | 1022.4 |
| 20260507070057 | 2 | 254 | 19.3 | 30.6 | 0.00 | 0.03 | 0.00 | 54 | 1022.3 |
| 20260507064541 | 2 | 275 | 19.3 | 35.4 | 0.00 | 0.03 | 0.00 | 55 | 1022.4 |
| 20260507063043 | 2 | 273 | 17.7 | 37.0 | 0.00 | 0.03 | 0.00 | 56 | 1022.2 |
| 20260507061545 | 2 | 236 | 12.9 | 22.5 | 0.00 | 0.03 | 0.00 | 58 | 1022.2 |
| 20260507060057 | 2 | 253 | 8.0 | 29.0 | 0.00 | 0.03 | 0.00 | 58 | 1021.9 |
| 20260507054545 | 2 | 263 | 12.9 | 24.1 | 0.00 | 0.03 | 0.03 | 59 | 1021.8 |
| 20260507053046 | 1 | 171 | 9.7 | 27.4 | 0.00 | 0.03 | 0.03 | 65 | 1021.6 |
| 20260507051544 | 0 | 29 | 3.2 | 11.3 | 0.00 | 0.03 | 0.03 | 76 | 1021.6 |
| 20260507050050 | 0 | 331 | 1.6 | 17.7 | 0.00 | 0.03 | 0.03 | 77 | 1021.7 |
| 20260507044601 | 0 | 325 | 0.0 | 12.9 | 0.00 | 0.03 | 0.03 | 83 | 1021.6 |
| 20260507043100 | -1 | 0 | 0.0 | 4.8 | 0.00 | 0.03 | 0.03 | 85 | 1021.4 |
| 20260507041549 | -1 | 0 | 0.0 | 1.6 | 0.00 | 0.03 | 0.03 | 85 | 1021.6 |
| 20260507040050 | -2 | 0 | 0.0 | 6.4 | 0.00 | 0.03 | 0.03 | 87 | 1021.5 |
| 20260507034553 | -2 | 0 | 0.0 | 0.0 | 0.00 | 0.03 | 0.03 | 84 | 1021.3 |
| 20260507033048 | -2 | 117 | 1.6 | 4.8 | 0.00 | 0.03 | 0.03 | 84 | 1021.3 |
| 20260507031549 | -1 | 317 | 0.0 | 6.4 | 0.00 | 0.03 | 0.03 | 85 | 1021.1 |
| 20260507030046 | -3 | 265 | 0.0 | 3.2 | 0.00 | 0.03 | 0.03 | 85 | 1020.9 |
| 20260507024554 | -2 | 0 | 0.0 | 8.0 | 0.00 | 0.03 | 0.03 | 87 | 1020.8 |
| 20260507023104 | -3 | 270 | 3.2 | 9.7 | 0.03 | 0.03 | 0.03 | 88 | 1020.8 |
| 20260507021551 | -3 | 226 | 3.2 | 8.0 | 0.03 | 0.03 | 0.03 | 87 | 1020.7 |
| 20260507020053 | -3 | 220 | 6.4 | 12.9 | 0.03 | 0.03 | 0.03 | 86 | 1020.7 |